Temp
13 11 11 11 11 13 12 12 13 12 13 13 11 10 11 15 13 14 16 17 17 17 20 18 17 16 16 16 16 16 16 16 15 14 13 10 9 9 9 9 9 10 10 10
10 10 11 12 11 13 13 13 11 11 12 13 11 11 11 12 12 15 17 18 18 19 19 19 18 16 16 16 16 15 15 15 15 14 13 11 10 9 9 9 9 9 9 10
10 13 11 11 11 12 11 11 11 12 12 10 10 9 10 11 12 15 16 17 18 19 19 19 19 18 17 16 16 16 15 15 15 13 12 10 9 9 9 9 9 8 8 9
10 11 12 11 11 11 11 10 11 12 12 10 11 10 10 12 12 11 16 17 18 19 19 19 19 18 17 17 16 15 14 14 14 13 12 10 10 9 8 9 8 7 7 8
12 10 10 11 11 11 11 10 10 11 10 10 9 9 11 11 12 13 15 18 20 20 19 19 19 18 17 16 16 15 13 13 13 13 11 9 8 8 9 8 8 7 7 8
11 11 10 11 10 11 9 10 8 6 8 8 9 10 11 11 12 13 14 18 19 19 18 17 17 17 16 15 14 13 12 12 12 12 10 9 8 8 8 8 8 7 7 7
11 10 11 11 10 10 11 11 10 9 6 9 7 8 15 13 13 11 13 18 18 18 17 17 18 18 17 16 14 12 12 12 12 11 10 9 8 8 8 8 7 6 7 7
10 10 9 9 12 11 9 10 9 10 7 9 6 8 11 10 12 15 14 17 18 18 17 17 17 16 16 15 13 12 11 11 11 10 10 8 7 8 8 8 8 7 7 7
9 10 9 9 11 13 9 10 11 11 -1 5 10 9 11 10 9 11 13 15 17 18 17 18 18 17 16 14 13 11 11 11 11 11 10 8 7 7 7 7 7 8 7 7
12 10 8 10 11 10 10 9 9 6 8 6 9 9 11 14 12 11 9 13 17 17 18 18 18 17 16 14 13 11 10 11 11 10 9 8 7 7 7 7 7 7 7 6
11 10 9 9 8 8 9 9 9 9 7 7 6 13 8 12 12 11 12 16 17 17 18 18 17 17 16 14 12 11 10 10 10 9 8 7 7 7 6 6 6 6 6 6
10 9 7 8 8 7 8 9 8 8 7 5 6 13 10 9 10 11 13 16 16 17 18 17 16 16 16 15 13 12 10 10 10 9 8 7 6 6 5 5 6 6 5 5
9 9 6 8 8 7 7 7 9 8 6 9 7 13 8 10 10 12 12 15 16 16 17 18 18 17 16 16 14 13 12 11 10 9 8 7 6 5 5 5 5 5 5 5
12 8 8 10 11 7 7 6 8 11 8 11 10 14 13 12 12 11 15 17 16 17 16 16 18 18 16 16 15 13 12 10 10 9 7 7 6 5 5 5 5 5 4 4
10 8 8 10 9 8 8 8 7 10 11 9 13 12 14 13 12 13 17 18 16 17 14 15 17 17 17 16 15 14 12 10 9 8 7 7 6 5 5 5 5 4 4 3
8 7 7 7 8 7 7 6 8 8 10 11 11 11 14 15 14 13 14 15 16 16 17 17 16 16 16 16 16 14 13 12 10 8 8 6 5 5 4 4 4 4 3 3
7 7 6 8 8 7 7 7 9 9 10 10 9 12 13 12 12 13 13 14 14 15 16 16 15 15 15 15 15 15 13 12 11 8 7 6 5 4 4 4 3 3 3 3
6 6 6 8 6 8 10 9 9 9 10 10 10 11 12 12 13 13 13 13 13 13 13 14 13 13 13 13 13 13 12 11 10 9 7 6 5 4 3 3 3 3 2 2
7 8 7 8 9 10 9 7 8 7 9 10 10 10 11 12 11 11 12 13 13 12 12 12 12 12 11 11 11 11 10 9 8 8 6 6 4 4 3 3 2 2 2 1
7 8 7 6 8 9 11 12 10 7 8 11 10 10 10 10 8 11 11 12 12 11 11 11 12 12 12 11 10 9 8 7 7 6 5 4 3 3 2 2 2 2 1 1
6 7 7 8 8 6 5 3 8 9 9 3 6 8 6 8 10 9 9 10 10 10 10 10 10 10 10 9 8 7 6 5 4 3 3 2 2 1 1 1 1 0 -0 -0
7 7 7 7 7 8 4 6 8 6 3 5 6 5 5 6 7 8 7 8 9 9 8 8 8 8 7 6 5 5 4 3 2 1 1 0 0 0 0 0 -1 -1 -1 -2
5 5 5 6 6 5 6 6 9 8 5 4 6 6 5 5 5 5 6 6 6 6 6 6 6 5 5 4 3 3 2 2 1 1 0 -0 -0 -0 -1 -0 -1 -2 -3 -4
3 1 5 5 3 2 3 5 6 5 5 5 5 5 5 5 5 5 5 5 5 5 5 5 5 5 4 4 3 2 2 2 1 1 1 0 -0 -1 -2 -3 -3 -3 -3 -2
2 2 3 3 1 -0 2 1 2 3 3 4 3 4 4 5 5 5 5 4 5 5 4 4 4 4 4 3 2 2 2 2 1 1 0 0 -0 -1 -1 -2 -2 -2 -3 -3
-1 1 4 6 3 5 5 6 4 3 3 3 3 3 4 4 4 4 4 4 4 3 3 3 3 2 2 1 2 2 2 1 1 1 1 0 -0 -0 -1 -1 -1 -2 -2 -3
Height
1530 1537 1541 1535 1536 1537 1542 1544 1544 1540 1535 1536 1536 1533 1527 1521 1521 1519 1518 1518 1516 1515 1515 1520 1522 1524 1525 1527 1529 1531 1534 1536 1538 1539 1542 1546 1549 1553 1556 1559 1562 1564 1567 1569
1536 1539 1525 1530 1535 1537 1540 1543 1546 1540 1536 1538 1535 1528 1518 1516 1511 1508 1509 1508 1507 1507 1507 1510 1513 1515 1516 1519 1522 1525 1527 1529 1532 1535 1538 1541 1545 1549 1553 1556 1558 1560 1562 1564
1532 1525 1523 1527 1534 1538 1540 1543 1542 1541 1537 1537 1536 1528 1517 1503 1502 1501 1499 1498 1499 1496 1498 1499 1503 1505 1508 1510 1513 1517 1521 1524 1526 1529 1532 1536 1540 1544 1547 1549 1553 1555 1558 1560
1528 1522 1524 1528 1531 1532 1540 1532 1534 1537 1542 1552 1536 1542 1518 1503 1499 1495 1488 1486 1483 1486 1488 1490 1492 1496 1497 1501 1507 1510 1514 1517 1520 1523 1526 1529 1532 1535 1539 1545 1549 1552 1555 1557
1518 1521 1524 1527 1525 1527 1531 1530 1535 1537 1544 1544 1541 1548 1509 1502 1499 1488 1479 1476 1475 1477 1481 1482 1484 1486 1490 1494 1497 1502 1506 1509 1513 1516 1520 1524 1528 1532 1537 1541 1544 1547 1551 1553
1515 1514 1516 1516 1520 1522 1527 1532 1539 1547 1548 1550 1531 1536 1500 1500 1487 1479 1471 1469 1470 1473 1475 1476 1478 1479 1480 1483 1488 1494 1499 1503 1507 1510 1514 1517 1522 1527 1531 1534 1538 1541 1545 1549
1516 1514 1512 1513 1521 1524 1524 1532 1550 1556 1565 1538 1531 1535 1482 1478 1475 1472 1468 1462 1466 1468 1470 1472 1472 1473 1473 1474 1478 1484 1490 1495 1500 1504 1508 1512 1517 1523 1527 1531 1534 1536 1540 1543
1517 1519 1509 1506 1507 1517 1525 1524 1544 1549 1555 1535 1534 1521 1487 1468 1464 1462 1461 1460 1460 1461 1465 1467 1467 1467 1468 1469 1472 1476 1482 1488 1493 1498 1502 1507 1513 1518 1523 1526 1530 1533 1537 1541
1516 1511 1500 1501 1501 1503 1520 1525 1515 1525 1572 1553 1509 1492 1473 1464 1462 1458 1454 1454 1453 1456 1460 1461 1462 1462 1462 1463 1466 1470 1476 1482 1486 1491 1496 1501 1507 1512 1516 1521 1525 1528 1532 1536
1497 1507 1502 1501 1502 1505 1505 1508 1525 1536 1541 1555 1507 1500 1481 1462 1458 1452 1450 1448 1449 1454 1456 1458 1458 1458 1458 1459 1461 1465 1471 1476 1481 1485 1490 1495 1500 1506 1511 1516 1519 1524 1527 1530
1491 1499 1505 1503 1503 1502 1508 1510 1511 1514 1522 1528 1535 1476 1460 1455 1449 1449 1446 1446 1448 1450 1453 1454 1455 1456 1455 1455 1457 1460 1464 1469 1475 1480 1484 1489 1494 1500 1505 1510 1514 1518 1522 1525
1484 1493 1505 1498 1494 1495 1493 1493 1499 1512 1520 1526 1522 1463 1448 1450 1448 1448 1445 1446 1447 1448 1449 1449 1450 1452 1452 1452 1453 1456 1460 1464 1469 1474 1478 1483 1489 1493 1498 1502 1507 1512 1515 1520
1478 1490 1511 1498 1497 1496 1494 1491 1488 1496 1507 1497 1513 1454 1450 1448 1447 1446 1447 1445 1446 1446 1446 1446 1446 1448 1449 1449 1449 1450 1453 1457 1463 1467 1472 1476 1481 1486 1491 1496 1501 1506 1509 1514
1467 1480 1485 1478 1473 1480 1487 1483 1481 1482 1498 1465 1481 1438 1446 1445 1445 1445 1445 1443 1443 1442 1442 1442 1443 1444 1444 1444 1445 1446 1448 1451 1456 1460 1464 1468 1472 1478 1484 1490 1495 1499 1504 1509
1467 1473 1476 1465 1471 1473 1473 1474 1479 1476 1458 1480 1443 1459 1419 1441 1441 1442 1441 1440 1438 1436 1436 1437 1438 1438 1438 1439 1439 1440 1442 1444 1448 1452 1455 1458 1464 1470 1476 1481 1485 1490 1495 1502
1461 1472 1473 1469 1465 1470 1472 1475 1468 1461 1458 1464 1447 1446 1410 1431 1434 1434 1434 1434 1431 1431 1431 1431 1431 1432 1432 1432 1432 1432 1434 1435 1438 1442 1446 1451 1456 1461 1465 1471 1476 1481 1487 1493
1457 1463 1469 1456 1453 1466 1464 1454 1447 1452 1447 1448 1453 1415 1419 1423 1426 1423 1425 1426 1424 1425 1424 1424 1425 1424 1424 1423 1423 1423 1424 1427 1429 1433 1438 1442 1447 1452 1457 1464 1469 1474 1478 1485
1447 1455 1459 1448 1456 1443 1424 1428 1431 1436 1428 1433 1434 1415 1409 1415 1416 1415 1416 1417 1414 1414 1414 1414 1414 1414 1414 1414 1414 1415 1416 1418 1420 1422 1427 1432 1438 1445 1450 1455 1461 1467 1473 1479
1436 1438 1440 1436 1425 1420 1421 1413 1415 1422 1414 1416 1415 1405 1399 1409 1416 1401 1408 1405 1404 1405 1405 1404 1404 1404 1405 1405 1406 1407 1408 1411 1413 1415 1419 1424 1431 1436 1443 1451 1456 1461 1466 1473
1424 1425 1434 1431 1412 1406 1392 1386 1401 1410 1415 1382 1400 1396 1395 1407 1417 1389 1398 1399 1397 1398 1398 1398 1398 1398 1398 1398 1399 1400 1401 1403 1407 1410 1416 1421 1427 1433 1439 1445 1451 1457 1463 1469
1408 1407 1405 1407 1407 1402 1391 1391 1393 1407 1398 1388 1388 1390 1395 1399 1395 1393 1393 1396 1394 1393 1393 1393 1393 1393 1393 1393 1394 1395 1397 1400 1404 1407 1412 1417 1424 1431 1438 1444 1448 1455 1461 1467
1389 1390 1390 1394 1396 1394 1389 1390 1389 1387 1386 1388 1387 1388 1390 1391 1392 1390 1389 1390 1390 1388 1388 1388 1388 1388 1390 1392 1393 1395 1396 1398 1402 1407 1411 1416 1422 1427 1435 1442 1449 1455 1459 1464
1391 1383 1382 1383 1384 1382 1386 1386 1379 1382 1383 1384 1385 1386 1386 1388 1389 1389 1386 1386 1386 1385 1385 1387 1388 1388 1390 1392 1395 1398 1401 1402 1402 1407 1411 1416 1422 1426 1432 1437 1443 1449 1456 1461
1383 1383 1385 1386 1381 1378 1375 1372 1370 1373 1375 1382 1383 1382 1382 1384 1385 1386 1387 1388 1389 1389 1389 1390 1390 1392 1394 1394 1397 1401 1403 1405 1408 1409 1414 1418 1422 1426 1432 1436 1441 1445 1450 1453
1376 1377 1377 1376 1366 1367 1367 1371 1374 1378 1378 1377 1379 1381 1382 1382 1384 1385 1386 1388 1389 1390 1392 1393 1395 1395 1397 1397 1399 1402 1404 1408 1411 1413 1415 1419 1424 1427 1432 1436 1440 1443 1446 1449
1373 1371 1372 1361 1358 1356 1353 1357 1365 1370 1374 1373 1376 1380 1382 1382 1383 1384 1386 1386 1388 1391 1392 1393 1396 1399 1402 1403 1402 1403 1406 1410 1413 1415 1417 1421 1425 1427 1430 1434 1437 1441 1442 1444
Wind_Speed
2 4 7 11 6 2 5 3 4 4 3 3 7 9 11 22 18 26 30 27 31 35 32 33 33 33 34 35 35 33 31 28 26 26 27 30 28 27 25 25 23 25 25 26
5 7 9 4 4 3 2 3 6 5 3 2 8 14 13 9 16 28 33 36 38 37 36 35 35 38 39 38 37 35 33 32 29 27 28 31 29 28 26 25 24 25 26 28
7 4 5 7 4 5 5 6 5 6 4 4 5 8 8 8 20 29 35 38 39 43 43 43 40 41 42 42 40 38 36 34 31 29 31 33 30 29 30 29 28 25 23 25
6 4 4 3 4 8 5 7 5 3 2 4 1 6 7 7 9 9 31 37 45 46 47 45 43 43 46 45 41 40 38 37 34 32 33 34 35 35 35 30 27 23 25 26
8 8 5 5 6 7 6 4 6 3 3 3 1 2 5 2 8 14 21 38 39 40 37 38 38 38 39 44 46 43 41 39 36 35 35 36 34 33 30 30 29 25 27 28
4 2 7 8 2 4 8 6 6 4 2 5 11 8 7 6 9 6 17 34 35 31 25 24 23 24 29 35 44 45 42 40 38 36 35 35 35 34 35 34 33 30 30 30
1 5 3 4 5 3 3 6 2 3 1 9 3 4 16 6 10 9 15 33 25 20 17 15 16 18 22 28 36 45 44 43 40 38 36 36 35 34 33 35 34 32 32 32
8 7 11 7 9 8 9 8 6 7 4 5 3 8 8 10 16 24 26 33 31 25 22 20 19 19 22 25 30 41 45 43 41 39 38 37 35 35 35 34 35 32 32 32
6 6 1 3 2 9 6 8 3 1 2 3 5 8 9 8 12 16 28 25 29 22 17 16 15 16 18 22 26 36 44 44 42 40 39 38 37 38 38 36 35 34 31 35
5 4 2 0 2 2 4 6 3 2 3 5 6 7 7 7 9 12 9 23 30 22 15 13 12 13 15 18 21 29 41 44 42 41 40 39 39 38 38 38 36 35 34 38
5 4 1 3 7 10 3 4 1 4 5 5 3 9 8 10 12 9 10 13 10 10 8 6 8 12 15 17 20 26 37 43 43 41 40 40 42 39 39 38 37 37 38 41
8 4 5 10 2 3 1 5 7 4 5 4 2 15 5 8 7 8 17 12 7 5 4 6 5 9 15 17 19 25 34 41 43 41 40 41 42 40 40 40 39 39 40 43
9 4 2 7 2 3 5 6 7 4 4 13 5 15 1 1 6 7 14 13 10 8 7 8 11 13 14 17 20 24 31 38 41 42 42 42 43 43 42 42 40 41 42 45
15 5 10 15 5 4 6 8 13 14 4 21 14 34 10 2 4 8 16 21 17 17 17 15 18 20 19 20 22 25 31 37 41 42 43 44 46 45 43 42 41 42 44 46
9 8 9 22 8 3 5 5 10 17 29 12 31 20 31 15 14 22 33 29 25 28 28 26 25 23 25 25 26 28 32 36 40 43 45 46 46 45 43 42 42 43 45 47
5 6 10 20 17 9 9 8 14 23 23 17 30 28 32 29 17 17 28 33 40 40 37 36 31 29 29 31 32 31 33 37 40 43 45 45 46 47 46 45 44 44 46 48
10 8 7 16 14 7 13 25 25 21 24 21 21 36 21 21 17 28 29 35 39 38 42 43 40 39 36 34 34 35 35 37 40 42 44 46 47 48 47 45 44 44 47 48
9 13 8 10 5 14 17 8 23 25 27 23 24 34 31 28 33 36 34 33 39 39 40 44 41 37 36 34 34 35 34 34 38 42 43 45 48 48 47 45 44 44 46 47
17 15 11 14 19 17 12 11 14 12 21 23 26 31 37 38 26 43 38 43 43 39 34 29 26 25 23 23 24 28 30 31 34 38 42 44 46 48 46 44 43 43 45 46
24 21 12 8 11 20 22 25 15 6 9 17 22 26 26 12 9 21 8 11 12 12 11 9 11 16 18 18 19 20 23 25 29 32 36 39 41 42 41 40 40 41 42 41
19 18 25 21 12 4 8 3 14 13 9 3 6 17 3 10 13 14 6 10 15 15 17 20 18 16 14 14 12 13 14 18 20 23 26 29 32 34 35 35 36 37 36 32
14 11 16 15 15 13 6 3 11 4 3 4 4 6 9 11 14 17 15 12 16 19 13 7 5 5 4 2 3 3 4 6 9 12 15 18 24 29 30 29 27 30 33 32
5 5 1 6 1 4 3 8 13 10 9 8 7 8 8 7 7 6 3 1 2 3 5 7 7 9 12 13 12 9 7 6 6 6 7 11 15 20 26 30 31 29 30 30
8 5 5 1 6 8 24 32 25 21 17 11 9 7 7 5 3 7 9 13 16 17 17 18 17 15 15 16 15 13 12 11 9 8 6 7 11 17 22 26 29 30 32 30
5 8 8 5 4 3 17 21 14 13 12 12 11 9 8 9 10 12 14 15 12 12 13 13 10 11 12 14 13 11 9 7 8 9 8 8 9 10 12 15 17 19 20 20
5 6 5 8 4 7 5 21 26 23 19 15 11 9 8 8 9 9 10 10 8 8 9 8 8 7 10 9 9 10 10 9 7 7 7 7 9 11 13 15 17 19 18 20
Wind_Direction
69 101 213 205 193 128 135 182 231 245 261 210 237 261 258 270 259 258 257 254 251 247 252 245 242 241 240 240 239 240 240 239 235 227 215 214 216 208 214 216 219 221 220 222
44 231 222 141 155 157 147 198 255 284 247 199 279 269 263 239 247 247 253 252 250 252 252 249 242 239 240 241 241 240 238 237 235 229 221 220 219 209 214 216 220 221 224 224
169 216 130 148 150 169 215 190 220 228 335 253 321 281 257 259 241 255 255 254 255 254 255 255 248 244 242 241 240 239 238 236 233 227 219 218 217 212 215 215 217 218 222 207
230 245 156 166 190 165 237 208 172 201 59 249 93 286 282 259 256 232 254 255 256 254 256 257 258 249 246 246 242 239 235 233 230 228 223 222 222 219 214 212 216 216 208 202
234 175 170 181 205 155 227 126 157 137 179 320 149 285 245 334 269 257 253 257 259 263 265 266 265 264 258 247 242 237 232 229 228 227 223 221 222 222 224 209 214 210 209 200
233 194 171 193 126 157 148 82 56 53 94 275 185 172 254 194 213 252 255 261 267 275 276 270 268 265 258 248 240 235 231 228 227 226 222 221 218 220 216 213 210 210 210 204
118 214 175 158 94 50 123 98 314 330 5 241 59 166 248 295 264 223 250 267 273 281 277 272 273 267 262 250 238 230 227 226 225 224 222 221 218 218 222 218 212 209 212 206
186 273 164 188 187 168 199 163 170 214 208 270 102 233 248 239 260 257 258 262 269 272 279 281 277 271 265 254 241 229 225 224 224 224 222 219 215 217 222 223 221 221 219 214
173 268 195 147 159 153 196 204 195 55 75 11 233 281 295 264 271 270 256 259 263 267 276 282 284 282 269 258 245 231 224 225 226 225 222 218 215 218 221 223 225 224 223 214
213 279 38 131 133 27 170 163 81 348 196 249 269 268 229 276 255 254 265 256 268 274 274 270 278 281 272 259 246 234 227 228 228 226 224 221 217 221 224 224 224 224 219 210
156 168 250 141 209 171 138 208 143 137 159 184 289 265 215 218 234 254 263 273 280 279 267 251 263 275 272 257 244 234 227 227 228 229 226 222 218 222 224 225 225 224 220 212
210 163 213 212 225 233 256 226 154 144 224 241 176 266 145 231 256 253 264 285 292 276 252 272 284 281 271 265 252 238 228 228 230 231 229 226 222 222 224 225 224 224 220 213
171 190 332 317 343 343 209 199 208 108 80 229 147 258 79 63 305 298 280 280 275 266 279 305 311 291 274 265 255 242 232 230 232 232 230 227 225 223 224 226 226 226 220 214
166 152 196 228 200 140 195 193 194 197 187 246 230 260 251 342 297 287 281 279 266 249 270 288 301 285 278 265 257 248 240 233 233 232 232 230 229 226 226 228 228 226 219 215
176 202 207 244 239 210 202 179 188 204 228 214 255 246 262 254 249 249 258 265 260 264 276 290 290 279 278 272 260 251 245 240 237 234 234 233 230 228 228 228 227 223 219 215
198 225 217 253 250 231 251 212 214 218 236 238 253 259 259 264 273 245 251 257 260 268 279 281 276 276 275 278 270 259 251 247 241 237 236 235 231 228 227 227 225 222 219 215
175 176 189 241 238 238 252 241 248 250 246 233 244 252 267 266 258 256 252 257 263 267 268 275 280 281 278 275 272 269 257 249 246 242 238 235 232 229 228 228 226 223 219 216
172 195 209 245 227 230 239 200 226 234 241 232 247 257 260 257 264 270 264 262 269 273 277 283 287 284 283 279 273 269 260 252 247 243 239 235 232 230 229 227 225 224 220 217
231 216 235 228 235 253 282 244 197 172 246 231 231 248 257 259 273 276 268 271 277 281 284 288 290 286 282 274 273 268 261 255 249 244 240 236 232 229 227 227 225 222 219 218
221 214 215 239 236 239 239 244 168 118 246 243 214 241 249 218 239 265 268 262 268 284 288 289 293 294 283 277 272 266 260 254 250 247 243 238 233 230 227 225 225 223 221 222
210 210 224 225 241 256 261 186 166 174 231 56 193 236 281 205 233 248 237 267 288 288 287 292 292 285 279 272 270 267 263 257 254 249 246 241 234 230 227 225 223 223 220 220
212 206 219 223 232 233 193 105 171 197 192 190 206 232 252 252 252 261 276 277 276 281 294 294 283 271 277 304 305 272 248 246 247 247 244 236 227 223 223 222 225 225 223 218
211 208 257 220 199 345 280 264 215 235 275 221 206 235 248 257 265 267 258 204 168 134 112 101 90 99 101 94 85 85 96 103 123 159 192 208 214 216 218 219 219 218 219 229
224 183 222 179 214 226 226 228 233 227 216 219 197 195 201 208 173 134 118 115 108 104 102 104 104 101 100 100 101 98 96 95 96 111 142 176 203 214 221 225 226 228 230 228
251 150 197 260 253 250 252 229 229 217 198 169 160 152 136 143 148 138 138 134 127 125 129 126 120 115 124 127 128 133 139 152 160 162 168 178 183 188 200 209 218 221 225 234
190 192 197 235 285 247 235 227 209 194 182 168 174 180 175 173 171 166 155 154 153 151 143 143 135 135 130 130 127 128 134 138 151 171 182 196 209 213 217 222 226 230 232 234